EHI
16 17 17 12 7 5 4 3 3 5 5 2 0 0 0 0 0 0 0 0 0 0 0 0 0 0 0 0 0 0 0 1 1 1 0 0 0 0 0 0 0 0 0
19 21 20 13 8 5 5 3 3 4 4 3 1 1 1 0 0 0 0 0 0 0 0 0 0 0 0 0 0 0 0 0 0 0 0 0 0 0 0 0 0 0 0
23 20 17 14 9 6 5 4 2 3 3 3 2 2 2 1 0 0 0 0 0 0 0 0 0 0 0 0 0 0 0 0 0 0 0 0 0 0 0 0 0 0 0
20 15 12 14 11 6 5 4 2 2 2 2 2 2 2 1 0 0 0 0 0 0 0 0 0 0 0 0 0 0 0 0 0 0 0 0 0 0 0 0 0 0 0
11 8 11 15 11 5 5 4 3 1 1 1 1 1 1 1 0 0 0 0 0 0 0 0 0 0 0 0 0 0 0 0 0 0 0 0 0 0 0 0 0 0 0
4 5 11 15 11 5 4 5 3 2 1 0 0 0 0 0 0 0 0 0 0 0 0 0 0 0 0 0 0 0 0 0 0 0 0 0 0 0 0 0 0 0 0
5 5 10 15 11 5 4 5 4 3 2 1 0 0 0 0 0 1 0 0 0 0 0 0 0 0 0 0 0 0 0 0 0 0 0 0 0 0 0 0 0 0 0
8 7 9 11 9 5 4 5 5 3 2 1 0 0 0 0 0 1 1 0 0 0 0 0 0 0 0 0 0 0 0 0 0 0 0 0 0 0 0 0 0 0 0
10 10 8 6 5 4 3 4 3 2 1 0 0 1 0 0 0 1 1 0 0 0 0 0 0 0 0 0 0 0 0 0 0 0 0 0 0 0 0 0 0 0 0
11 10 7 3 2 2 1 1 1 1 1 0 0 0 0 0 0 1 1 0 0 0 0 0 0 0 0 0 0 0 0 0 0 0 0 0 0 0 0 0 0 0 0
7 7 6 3 1 2 2 1 1 1 0 0 0 0 0 0 0 0 0 0 0 0 0 0 0 0 0 0 0 0 0 0 0 0 0 0 0 0 0 0 0 0 0
2 3 3 2 1 2 3 2 1 0 0 0 0 0 0 0 0 0 0 0 0 0 0 0 0 0 0 0 0 0 0 0 0 0 0 0 0 0 0 0 0 0 0
1 1 1 1 2 3 4 4 1 0 0 0 0 0 0 0 0 0 0 0 0 0 0 0 0 0 0 0 0 0 0 0 0 0 0 0 0 0 0 0 0 0 0
1 1 1 2 3 3 4 4 1 0 0 0 0 0 0 0 0 0 0 0 0 0 0 0 0 0 0 0 0 0 0 0 0 0 0 0 0 0 0 0 0 0 0
2 2 3 3 3 3 3 2 1 0 0 1 1 1 0 0 0 0 0 0 0 0 0 0 0 0 0 0 0 0 0 0 0 0 0 0 0 0 0 0 0 0 0
2 3 3 3 2 1 1 1 0 0 0 1 2 1 0 0 0 0 0 0 0 0 0 0 0 0 0 0 0 0 0 0 0 0 0 0 0 0 0 0 0 0 0
1 2 2 1 1 0 0 0 0 0 0 2 3 3 1 0 0 0 0 0 0 0 0 0 0 0 0 0 0 0 0 0 0 0 0 0 0 0 0 0 0 0 0
0 1 1 0 0 0 0 0 0 0 1 3 5 4 1 0 0 0 0 0 0 0 0 0 0 0 0 0 0 0 0 0 0 0 0 0 0 0 0 0 0 0 0
0 0 0 0 0 0 0 0 0 0 1 3 4 3 1 0 0 0 0 0 0 0 0 0 0 0 0 0 0 0 0 0 0 0 0 0 0 0 0 0 0 0 0
0 0 0 0 0 0 0 0 0 0 0 1 1 1 0 0 0 0 0 0 0 0 0 0 0 0 0 0 0 0 0 0 0 0 0 0 0 0 0 0 0 0 0
0 0 0 0 0 0 0 0 0 0 0 0 0 0 0 0 0 0 0 0 0 0 0 0 0 0 0 0 0 0 0 0 0 0 0 0 0 0 0 0 0 0 0
0 0 0 0 0 0 0 0 0 0 0 0 1 0 0 0 0 0 0 0 0 0 0 0 0 0 0 0 0 0 0 0 0 0 0 0 0 0 0 0 0 0 0
0 0 0 0 0 0 0 0 0 0 0 0 0 0 0 0 0 0 0 0 0 0 0 0 0 0 0 0 0 0 0 0 0 0 0 0 0 0 0 0 0 0 0
0 0 0 0 0 0 0 0 0 0 0 0 0 0 0 0 0 0 0 0 0 0 0 0 0 0 0 0 0 0 0 0 0 0 0 0 0 0 0 0 0 0 0
0 0 0 0 0 0 0 0 0 0 0 0 0 0 0 0 0 0 0 0 0 0 0 0 0 0 0 0 0 0 0 0 0 0 0 0 0 0 0 0 0 0 0
0 0 0 0 0 0 0 0 0 0 0 0 0 0 0 0 0 0 0 0 0 0 0 0 0 0 0 0 0 0 0 0 0 0 0 0 0 0 0 0 0 0 0
Wind_Speed
6 9 10 8 7 7 6 6 7 6 6 6 6 7 7 7 7 7 7 7 7 7 7 8 8 8 8 8 8 8 8 8 8 8 8 9 9 9 9 9 8 7 10
7 9 10 8 7 7 6 6 6 6 5 5 6 7 7 7 7 7 6 7 6 6 7 7 7 8 8 8 8 7 7 6 5 5 5 6 7 8 9 9 9 6 10
8 9 9 8 7 7 6 6 5 5 6 6 7 7 7 7 6 6 6 6 6 6 6 7 7 7 7 7 7 6 5 4 3 1 1 2 5 8 8 8 9 9 9
8 8 7 8 7 7 6 6 6 5 5 6 6 6 7 7 7 7 6 6 6 6 6 6 6 6 6 6 6 5 4 2 1 2 0 3 4 8 9 8 8 8 8
7 7 8 8 6 6 6 6 6 5 6 6 6 6 7 7 7 7 6 6 6 6 6 6 6 6 6 6 5 4 2 1 3 2 2 4 4 8 8 8 8 8 8
6 6 8 8 6 6 6 6 6 6 6 6 6 6 6 7 7 7 7 6 6 6 6 6 6 6 5 5 4 3 2 3 4 1 3 4 4 7 8 7 7 7 7
5 5 7 8 6 5 6 6 6 6 6 6 6 6 6 6 6 7 7 7 6 6 5 5 5 5 5 5 4 3 3 4 1 2 3 4 5 7 7 6 6 6 6
5 5 6 7 6 5 6 6 6 6 7 6 6 7 6 6 6 6 6 6 6 6 5 5 5 5 5 4 3 2 3 4 1 3 4 4 6 7 6 6 6 6 6
4 5 5 5 5 5 5 6 6 7 7 6 6 6 6 6 6 6 6 6 6 6 5 5 5 4 4 3 2 1 3 4 2 2 5 3 6 7 7 6 6 6 6
2 4 5 4 4 4 4 5 6 6 6 6 6 6 6 6 6 5 5 5 5 5 5 5 4 4 3 2 1 1 3 3 1 3 3 4 7 7 6 6 6 6 6
0 2 4 4 4 3 3 5 5 6 6 6 6 7 6 4 4 3 4 4 5 5 4 4 4 4 3 1 1 2 2 0 3 3 3 5 6 6 6 6 6 6 6
2 2 3 4 4 3 3 4 4 4 4 4 4 4 3 2 3 4 5 4 4 4 4 4 4 4 3 1 1 2 0 1 2 3 3 7 6 6 5 5 5 5 6
2 2 3 3 3 3 2 2 2 2 3 3 4 4 2 3 3 4 2 2 2 3 2 2 2 2 2 1 1 1 1 2 2 2 3 7 6 6 5 5 5 5 5
3 2 2 3 3 3 3 2 2 2 2 2 3 4 3 2 2 3 2 2 2 1 2 2 1 1 2 2 2 2 2 2 2 2 3 7 7 6 6 5 5 5 5
3 3 2 2 3 3 3 2 2 2 2 2 2 2 3 2 2 2 2 2 1 1 1 1 1 1 1 1 1 2 2 3 3 3 3 7 7 7 6 6 5 5 5
4 4 3 3 4 4 3 2 2 2 2 2 2 2 2 2 2 2 2 2 1 1 1 1 2 2 1 1 1 2 2 2 3 4 4 4 7 7 6 6 5 5 5
4 4 4 4 4 4 4 3 2 2 2 2 2 2 2 2 3 2 2 1 1 1 0 0 2 2 2 2 2 2 2 2 2 3 4 3 3 5 6 6 5 5 4
4 4 4 3 3 4 3 3 2 2 2 2 2 3 3 3 3 2 2 1 1 1 1 1 1 2 1 1 1 1 1 2 3 3 3 3 2 2 4 6 5 5 4
4 4 4 4 3 3 3 3 3 2 2 2 2 3 3 3 3 2 2 1 2 1 1 1 1 2 2 1 1 1 1 1 2 2 3 3 3 3 2 3 4 4 4
4 4 5 5 4 3 3 2 2 2 2 2 3 3 4 3 3 2 2 2 2 1 1 1 1 2 2 1 1 1 1 1 1 2 2 2 2 2 2 2 2 2 3
4 5 5 5 4 3 3 3 2 2 2 2 2 4 4 3 3 3 2 2 2 2 1 2 1 2 1 2 2 1 1 1 1 1 1 1 1 1 2 2 1 1 1
5 5 5 5 5 4 3 3 2 2 2 2 2 3 4 4 3 3 3 2 2 2 2 2 2 1 1 1 2 2 0 1 1 1 1 1 1 1 1 1 1 1 1
5 5 5 5 5 4 3 3 3 2 2 1 2 2 3 3 3 3 3 2 2 2 2 2 2 2 1 1 1 2 2 2 0 1 2 2 1 1 1 1 1 1 1
5 5 5 5 5 5 4 4 5 4 3 3 2 2 2 3 3 3 3 3 2 1 2 2 2 1 2 1 1 0 1 2 2 1 1 1 1 1 1 1 1 1 1
6 6 5 6 5 5 5 4 5 4 3 3 3 3 2 2 3 3 3 3 2 1 2 2 1 1 1 2 2 1 1 0 1 2 2 2 1 2 1 1 1 1 1
5 5 6 6 6 5 5 5 5 5 5 5 4 4 3 2 2 2 3 3 2 2 2 2 2 2 1 1 1 1 1 1 2 1 2 2 2 2 2 2 1 1 1
Wind_Direction
114 130 134 129 125 121 117 115 113 112 117 122 124 120 118 114 109 106 105 103 99 96 93 91 88 83 79 83 84 84 84 82 81 81 78 78 74 71 69 63 65 70 71
120 131 137 132 130 130 126 121 117 115 121 125 124 120 121 119 115 110 110 107 105 101 97 93 89 85 79 80 84 86 89 91 92 92 94 87 80 74 69 61 62 73 72
120 130 140 135 134 136 133 128 126 124 127 125 122 121 123 122 121 119 112 107 104 102 98 95 90 88 84 80 84 88 89 88 92 116 155 133 98 83 76 71 70 74 75
116 128 137 136 138 142 138 135 135 131 129 126 126 126 126 122 117 114 110 104 101 97 97 96 92 90 90 85 84 87 87 73 356 291 210 106 96 87 81 77 76 75 74
113 129 135 133 142 143 144 141 141 135 130 129 128 129 125 118 116 113 109 105 101 96 94 97 96 95 93 90 87 81 70 11 329 306 66 80 85 91 84 78 76 76 74
112 125 135 136 141 144 146 145 145 143 137 136 132 127 126 122 118 113 108 103 100 96 92 94 98 95 96 95 89 75 35 346 319 27 76 81 85 91 88 81 79 77 75
110 119 142 144 143 148 152 150 150 150 141 138 133 127 126 126 121 115 111 107 102 98 96 94 97 97 95 95 88 60 11 331 289 71 75 74 81 91 89 84 83 79 76
117 119 142 149 145 149 157 158 154 147 142 136 132 128 121 120 122 121 118 115 112 109 106 101 94 102 101 97 88 51 353 333 354 82 87 80 85 92 93 87 87 81 72
120 126 140 155 152 147 150 157 154 149 141 137 132 127 119 114 115 118 116 114 113 115 112 103 98 94 102 100 87 20 335 328 346 57 89 88 89 89 88 85 86 82 76
116 131 140 158 155 153 157 154 150 147 138 136 131 124 115 111 109 112 113 112 111 109 110 107 105 103 97 104 99 304 314 319 30 63 70 88 91 92 88 88 86 82 76
186 141 146 154 158 155 160 154 143 140 137 134 130 132 131 135 125 112 108 115 120 118 117 124 126 129 126 141 234 273 299 348 79 72 62 88 98 98 94 94 91 85 77
230 188 156 157 157 156 161 152 158 150 149 154 147 154 163 142 125 110 106 113 126 126 131 150 155 161 168 185 240 266 291 63 79 82 73 91 98 99 94 96 92 86 81
217 213 166 161 155 151 146 152 158 156 162 162 157 169 150 121 119 119 123 123 140 156 168 172 190 210 169 156 158 119 73 67 79 74 76 91 95 98 96 95 92 88 86
211 216 204 160 155 150 141 147 156 157 165 163 164 172 151 132 137 146 148 160 168 181 172 185 198 176 149 152 133 122 101 96 102 96 85 90 91 96 94 90 86 83 82
202 205 216 175 158 150 144 158 154 152 159 154 156 170 138 134 139 139 138 139 152 153 183 183 158 130 109 92 101 117 116 105 109 105 95 92 89 89 88 84 82 78 78
201 200 198 186 170 154 153 159 153 143 145 139 136 139 132 130 132 133 125 127 127 139 195 184 138 127 113 87 69 71 89 99 105 113 115 98 92 89 87 83 80 76 73
204 191 188 181 166 159 155 156 140 147 143 141 140 133 115 111 120 123 126 125 129 127 155 87 100 99 98 88 69 54 53 58 89 109 113 118 104 89 88 87 81 74 69
193 179 179 177 160 159 152 140 135 149 136 138 137 130 122 116 118 119 121 124 114 98 90 98 108 103 98 95 82 65 58 51 60 82 94 104 111 108 98 96 87 73 65
184 174 163 162 158 151 140 133 135 136 140 140 137 134 132 127 125 117 122 126 111 96 94 119 102 121 119 95 87 85 84 94 91 86 91 94 97 106 118 116 104 87 68
175 168 162 161 159 142 134 131 120 121 142 145 143 141 137 137 132 124 120 116 109 103 95 102 115 106 118 123 97 70 76 108 96 94 105 107 107 116 119 123 131 110 89
167 163 163 157 158 148 149 157 154 153 144 144 149 146 141 137 135 136 132 125 119 122 131 116 105 113 112 111 95 51 3 96 122 128 118 111 110 127 130 119 129 124 122
168 164 162 158 162 161 163 165 159 149 136 142 150 149 145 142 140 140 137 137 133 127 117 106 103 114 146 142 139 127 102 336 308 184 152 152 160 135 139 127 125 126 125
169 165 167 162 159 161 156 147 133 112 106 131 150 147 147 141 132 126 134 137 150 146 148 139 133 125 152 212 160 143 153 197 235 262 215 180 174 176 182 155 139 147 138
168 160 163 157 156 162 164 164 156 158 154 168 165 150 152 145 139 135 134 134 142 139 143 154 134 145 152 183 241 218 190 156 153 204 273 229 202 207 214 202 166 189 166
157 156 162 158 160 166 173 177 170 162 150 142 141 145 149 152 147 146 140 137 143 145 147 151 147 162 173 183 187 202 244 265 175 163 218 239 259 247 230 221 199 198 183
155 158 163 161 165 170 175 183 180 167 154 148 153 159 155 154 149 152 146 144 149 153 161 170 175 183 199 200 205 198 185 192 205 180 194 212 234 247 250 238 215 203 186